Flag for Germany Weather past 2 weeks in Dannenberg, Lower Saxony, Germany

Now
48 °F

Partly sunny.


Feels Like: 42 °F
Forecast: 42 / 67 °F
Wind: 15 mph from Southwest

Location: Mecklenburg-Vorpommern - Parchim

Current Time: May 30, 2015 at 6:50:20 AM

Latest Report: May 30, 2015 at 6:20 AM


Visibility: N/A

Pressure: 29.68 "Hg

Humidity: 87%

Dew point: 45 °F

Location of DannenbergLocation

Historic Weather in Dannenberg — Graph

°F

Dannenberg temperature yesterday

Maximum temperature yesterday: 63 °F (at 5:20 PM)
Minimum temperature yesterday: 39 °F (at 6:20 AM)
Average temperature yesterday: 56 °F

Past Weeks' High & Low Weather Summary

 TemperatureHumidityPressure
High66 °F (May 24, 4:20 PM)100% (May 15, 6:20 AM)30.30 "Hg (May 15, 6:20 AM)
Low37 °F (May 15, 6:20 AM)35% (May 24, 6:50 PM)29.59 "Hg (May 19, 6:20 AM)
Average54 °F67%30.00 "Hg
* Reported May 14 6:20 PM — May 29 6:50 PM, Dannenberg, Weather by CustomWeather, © 2015

Note: Actual official high and low records may vary slightly from our data, if they occured in-between our weather recording intervals... More about our weather records

Advertising

Dannenberg weather history for previous 24 hours

 ConditionsComfort  
Time TempWeatherWind HumidityBarometerVisibility
6:50 PM
Fri, May 29
63 °FSunny.10 mph49%29.71 "Hg10 mi
6:20 PM61 °FSunny.10 mph48%29.71 "Hg10 mi
5:50 PM61 °FSunny.12 mph45%29.74 "Hg10 mi
5:20 PM63 °FPassing clouds.13 mph42%29.74 "HgN/A
4:50 PM61 °FSunny.13 mph42%29.77 "Hg10 mi
4:20 PM61 °FPassing clouds.13 mph45%29.77 "HgN/A
3:50 PM61 °FPassing clouds.9 mph45%29.80 "HgN/A
3:20 PM61 °FPassing clouds.9 mph42%29.80 "HgN/A
2:50 PM61 °FPassing clouds.7 mph45%29.83 "HgN/A
2:20 PM59 °FPassing clouds.7 mph48%29.83 "HgN/A
1:50 PM59 °FSunny.10 mph51%29.83 "Hg10 mi
1:20 PM59 °FBroken clouds.9 mph51%29.86 "HgN/A
12:50 PM59 °FPartly sunny.9 mph51%29.86 "HgN/A
12:20 PM57 °FPartly sunny.9 mph55%29.89 "HgN/A
11:50 AM57 °FPartly sunny.10 mph59%29.89 "HgN/A
11:20 AM55 °FBroken clouds.9 mph63%29.89 "HgN/A
10:50 AM55 °FScattered clouds.9 mph63%29.89 "HgN/A
10:20 AM55 °FScattered clouds.9 mph67%29.92 "HgN/A
9:50 AM55 °FScattered clouds.10 mph67%29.92 "HgN/A
9:20 AM54 °FPassing clouds.8 mph67%29.92 "HgN/A
8:50 AM52 °FSunny.8 mph72%29.92 "Hg10 mi
8:20 AM52 °FPassing clouds.6 mph77%29.92 "HgN/A
7:50 AM48 °FSunny.6 mph87%29.92 "Hg10 mi
7:20 AM46 °FSunny.3 mph93%29.92 "Hg10 mi
6:50 AM43 °FSunny.2 mph100%29.92 "Hg10 mi
6:20 AM39 °FSunny.No wind100%29.92 "Hg10 mi
Weather by CustomWeather, © 2015

See weather overviewHow to use our weather pages